Location: Ladrillo (historical)
(32.8195°N, 117.2231°W)
Time: 15:55:07
(UTC+00:00)

Vanguard 2 - Visible Passes

Search period start: 27 February 2021 00:00
Search period end: 09 March 2021 00:00
Orbit: 552 x 2938 km, 32.9° (Epoch: 26 February)

Date Brightness Start Highest point End Pass type
(mag) Time Alt. Az. Time Alt. Az. Time Alt. Az.
27 Feb 11.6 09:01:15 15° ESE 09:01:15 15° ESE 09:05:40 10° E visible
27 Feb 10.4 11:02:40 43° S 11:06:39 49° SE 11:23:23 10° ENE visible
27 Feb 10.4 13:04:04 16° WSW 13:18:54 81° SSE 13:36:15 10° E visible
28 Feb 11.3 09:18:09 22° ESE 09:18:09 22° ESE 09:25:57 10° E visible
28 Feb 10.2 11:19:34 47° SSW 11:24:16 59° SSE 11:41:41 10° ENE visible
28 Feb 10.4 13:20:58 12° WSW 13:37:03 86° S 13:54:20 10° E visible
01 Mar 11.0 09:34:59 29° ESE 09:34:59 29° ESE 09:45:13 10° E visible
01 Mar 10.1 11:36:23 47° SW 11:42:02 68° SSE 11:59:54 10° ENE visible
01 Mar 10.5 13:38:13 10° W 13:55:16 90° S 14:12:25 10° E visible
02 Mar 10.7 09:51:44 38° ESE 09:51:44 38° ESE 10:03:59 10° E visible
02 Mar 10.1 11:53:07 43° SW 11:59:58 77° SSE 12:18:03 10° E visible
03 Mar 10.4 10:08:25 48° SE 10:08:25 48° SE 10:22:27 10° ENE visible
03 Mar 10.2 12:09:49 38° WSW 12:18:00 83° SSE 12:36:11 10° E visible
04 Mar 11.6 08:23:40 12° E 08:23:40 12° E 08:24:48 10° E visible
04 Mar 10.1 10:25:03 59° SE 10:25:03 59° SE 10:40:46 10° ENE visible
04 Mar 10.2 12:26:26 31° WSW 12:36:09 88° S 12:54:22 10° E visible
05 Mar 11.4 08:40:16 18° E 08:40:16 18° E 08:43:59 10° E visible
05 Mar 9.8 10:41:39 70° SSE 10:41:39 70° SSE 10:59:00 10° ENE visible
05 Mar 10.3 12:43:02 25° W 12:54:21 90° N 13:12:32 10° E visible
06 Mar 11.1 08:56:50 24° E 08:56:50 24° E 09:02:42 10° E visible
06 Mar 9.7 10:58:13 75° SSW 10:59:30 79° SSE 11:17:13 10° E visible
06 Mar 10.3 12:59:36 19° W 13:12:36 90° N 13:30:42 10° E visible
07 Mar 10.8 09:13:23 31° E 09:13:23 31° E 09:21:08 10° ENE visible
07 Mar 9.7 11:14:46 67° WSW 11:17:30 85° SSE 11:35:25 10° E visible
07 Mar 10.4 13:16:08 13° W 13:30:49 88° S 13:48:50 10° E visible
08 Mar 10.6 09:29:55 39° E 09:29:55 39° E 09:39:26 10° ENE visible
08 Mar 9.7 11:31:17 56° W 11:35:37 89° S 11:53:39 10° E visible
08 Mar 10.4 13:33:08 10° W 13:48:59 84° SSW 14:06:51 10° ESE visible
